Location: Blangy-Tronville
(49.8790°N, 2.4226°E)
Time: 00:54:11
(UTC+00:00)

Cosmos 1092 Rocket - Pass Details

Date: 18 November 2025
Orbit: 953 x 994 km, 82.9° (Epoch: 05 December)

Event Time Altitude Azimuth Distance (km) Brightness Sun altitude
Rises 18:07:23 0° 352° (N) 3,696 7.0 -19.8°
Reaches altitude 10° 18:10:00 10° 358° (N) 2,738 6.3 -20.2°
Maximum altitude 18:16:08 54° 75° (ENE) 1,167 4.0 -21.2°
Drops below altitude 10° 18:22:10 10° 152° (SSE) 2,693 6.1 -22.1°
Sets 18:24:42 0° 157° (SSE) 3,630 6.8 -22.5°
